Notices

What's New in latest Release from April 7th, 2021:

- Updated Glossary, including Speed of Maximum Gust, and Total Hourly Precipitation

- Updated national and regional climate services offices contacts and prices information

- Addition of station inventory lists for 1981-2010, 1971-2000, and 1961-1990 Normals.

If you haven't already, please take our survey and provide feedback about our website: https://eccc.sondage-survey.ca/f/LanguageSelection.aspx?s=442ca660-fcf1-47c0-95a9-59707d6fd709

Hourly Data Report for June 16, 2004

SHERBROOKE A
QUEBEC

45°26'00.000" N
71°41'00.000" W
241.40 m
7028124
71610
YSC

Download Data

Hourly Data (June 2004)
Hourly Data Report for June 16, 2004
TIME
LST
Temp Definition
°C
Dew Point Definition
°C
Rel Hum Definition
%
Precip. Amount Definition
mm

Wind Dir Definition
10's deg

Wind Spd Definition
km/h
Visibility Definition
km
Stn Press Definition
kPa
Hmdx Definition


Wind Chill Definition


Weather Definition


00:00 11.7 10.4 92     0 15.0 98.90      
01:00 10.9 9.4 90   27 6 15.0 98.96      
02:00 9.7 8.2 90   29 4 15.0 99.03      
03:00 8.7 7.7 93     0 15.0 99.08      
04:00 8.1 7.4 95   30 7 15.0 99.14      
05:00 10.7 8.8 88   31 6 15.0 99.19      
06:00 12.5 8.0 74   32 11 15.0 99.27      
07:00 13.4 6.9 65   36 9 24.1 99.28     Mainly Clear
08:00 14.9 8.2 64   32 7 24.1 99.29     Mainly Clear
09:00 15.9 9.1 64   28 13 24.1 99.28     Mainly Clear
10:00 16.7 9.8 64   26 17 24.1 99.33     Mainly Clear
11:00 18.1 10.5 61   31 17 24.1 99.31     Mainly Clear
12:00 18.7 10.3 58   24 11 24.1 99.28     Mainly Clear
13:00 19.7 11.1 58   30 7 24.1 99.23     Mainly Clear
14:00 20.7 11.5 56   29 15 24.1 99.16     Mainly Clear
15:00 21.2 11.6 54   30 15 24.1 99.13     Mainly Clear
16:00 21.5 11.0 51   26 11 24.1 99.11     Mainly Clear
17:00 21.0 10.0 49   29 13 15.0 99.06      
18:00 20.9 10.6 52   29 6 15.0 99.02      
19:00 18.0 12.8 72     0 15.0 99.00      
20:00 13.0 10.7 86     0 15.0 98.99      
21:00 10.9 8.8 87     0 15.0 99.03      
22:00 11.0 9.6 91   14 6 15.0 99.03      
23:00 9.1 8.0 93     0 15.0 98.97      

Notes on Data Quality.

Legend

  • E = Estimated
  • M = Missing
  • NA = Not Available*
  • [empty] = Indicates an unobserved value
Date modified: